Weather History for Punta Gorda, FL

Change the Weather History Date:

Saturday, November 24, 2012

  Actual Average Record
Temperature  
Mean Temperature 62 °F -  
Max Temperature 78 °F 76 °F 84 °F (1998)
Min Temperature 46 °F 54 °F 44 °F (2006)
Degree Days  
Heating Degree Days 3    
Growing Degree Days 12 (Base 50)    
Moisture  
Dew Point 52 °F    
Average Humidity 72    
Maximum Humidity 93    
Minimum Humidity 44    
Precipitation  
Precipitation 0.00 in - - ()
Sea Level Pressure  
Sea Level Pressure 30.11 in    
Wind  
Wind Speed 4 mph (NW)    
Max Wind Speed 14 mph    
Max Gust Speed -    
Visibility 9 miles    
Events      
Averages and records for this station are not official NWS values.
T = Trace of Precipitation, MM = Missing Value Source: NWS Daily Summary

Daily Weather History Graph

Daily Weather History Graph

Search for Another Location

Airport:

Trip Planner

Search our weather history database for the weather conditions in past years. The results will help you decide how hot, cold, wet, or windy it might be!

Date:

Astronomy

Nov. 24, 2012 Rise Set
Actual Time 6:54 AM EST 5:34 PM EST
Civil Twilight 6:29 AM EST 5:59 PM EST
Nautical Twilight 6:01 AM EST 6:27 PM EST
Astronomical Twilight 5:33 AM EST 6:55 PM EST
Moon 3:05 PM EST (11/24) 3:26 AM EST (11/24)
Length of Visible Light 11h 29m
Length of Day
10h 39m
Waxing Gibbous, 87% of the Moon is Illuminated
Nov 24
Waxing Gibbous
Nov 28
Full
Dec 6
Last Quarter
Dec 13
New
Dec 20
First Quarter

Hourly Weather History & Observations

Time (EST) Temp. Dew Point Humidity Pressure Visibility Wind Dir Wind Speed Gust Speed Precip Events Conditions
12:53 AM 48.9 °F 44.1 °F 83% 30.14 in 10.0 mi Calm Calm - N/A   Clear
1:53 AM 50.0 °F 46.0 °F 86% 30.12 in 10.0 mi Calm Calm - N/A   Clear
2:53 AM 46.9 °F 45.0 °F 93% 30.11 in 10.0 mi Calm Calm - N/A   Clear
3:53 AM 50.0 °F 46.9 °F 89% 30.10 in 8.0 mi Calm Calm - N/A   Clear
4:53 AM 48.9 °F 46.0 °F 90% 30.10 in 5.0 mi Calm Calm - N/A   Clear
5:53 AM 50.0 °F 46.9 °F 89% 30.12 in 6.0 mi Calm Calm - N/A   Scattered Clouds
6:53 AM 48.0 °F 46.0 °F 93% 30.13 in 5.0 mi Calm Calm - N/A   Clear
7:53 AM 55.0 °F 52.0 °F 89% 30.14 in 5.0 mi Calm Calm - N/A   Clear
8:53 AM 66.0 °F 57.0 °F 73% 30.15 in 10.0 mi Calm Calm - N/A   Clear
9:53 AM 71.1 °F 54.0 °F 55% 30.16 in 10.0 mi NNW 6.9 mph - N/A   Clear
10:53 AM 73.9 °F 51.1 °F 45% 30.15 in 10.0 mi NW 10.4 mph - N/A   Clear
11:53 AM 75.0 °F 52.0 °F 44% 30.12 in 10.0 mi NNW 5.8 mph - N/A   Clear
12:53 PM 77.0 °F 54.0 °F 45% 30.08 in 10.0 mi NNW 6.9 mph - N/A   Partly Cloudy
1:53 PM 78.1 °F 55.0 °F 45% 30.06 in 10.0 mi West 8.1 mph - N/A   Scattered Clouds
2:53 PM 77.0 °F 55.9 °F 48% 30.04 in 10.0 mi WNW 10.4 mph - N/A   Partly Cloudy
3:53 PM 75.0 °F 55.9 °F 51% 30.04 in 10.0 mi WNW 13.8 mph - N/A   Clear
4:53 PM 71.1 °F 55.9 °F 59% 30.06 in 10.0 mi WNW 13.8 mph - N/A   Clear
5:53 PM 66.9 °F 57.0 °F 70% 30.07 in 10.0 mi WNW 11.5 mph - N/A   Clear
6:53 PM 64.0 °F 57.9 °F 80% 30.08 in 10.0 mi WNW 10.4 mph - N/A   Clear
7:53 PM 63.0 °F 57.0 °F 81% 30.10 in 9.0 mi NW 11.5 mph - N/A   Clear
8:53 PM 59.0 °F 54.0 °F 83% 30.12 in 10.0 mi NNW 9.2 mph - N/A   Clear
9:53 PM 57.0 °F 51.1 °F 81% 30.13 in 10.0 mi NNW 8.1 mph - N/A   Clear
10:53 PM 55.9 °F 48.9 °F 77% 30.14 in 10.0 mi North 6.9 mph - N/A   Clear
11:53 PM 54.0 °F 48.0 °F 80% 30.13 in 10.0 mi North 4.6 mph - N/A   Clear